Starlink 30810

operational
NORAD ID: 58178 Int'l Des: 2023-167 Owner: SPXS Country: US Constellation: starlink
LEOCIRCULAR

Über Starlink 30810

Beschreibung wird geladen...

Live-Position

3D-Globus wird geladen...

Nächste Überflüge

Höhenverlauf

Altitude vs Time

uPlot chart will show altitude changes over time

Zweizeiliger Elementsatz

1 58178U 23167D 26034.54521973 -.00011339 00000-0 -82447-3 0 9996
2 58178 43.0011 331.9329 0001310 260.3174 99.7520 15.02590789125813
Epoch: 3. Feb. 2026 • Age: 11 hours

Aktueller Status

Höhe 571.2 km
Geschwindigkeit 7.58 km/s
Subsatellitenpunkt -42.61°S, 118.18°E
Startdatum 30. Okt. 2023
Alter 2.2 years
Typ internet

Technische Details

Klassifizierung Payload
Masse 730.00 kg
Trockenmasse 700.00 kg
Gesamtmasse 730.00 kg
Länge 0.30 m
Durchmesser 4.10 m
Spannweite 29.00 m
Form Box + pan
Hersteller SPXS
Bus-Typ Starlink V2M
Phasenstatus In Orbit
Besitzer/Staat SPXS/US

Große Konstellationen

Loading constellations...